Location: Fort Worth, Tx
(32.7431°N, 97.3695°W)
Time: 01:40:40
(UTC-04:00)

Vanguard 2 - Pass Details

Date: 28 February 2024
Orbit: 552 x 2916 km, 32.9° (Epoch: 24 April)

Event Time Altitude Azimuth Distance (km) Brightness Sun altitude
Rises 23:31:18 0° 280° (W) 5,104 12.3 -50.8°
Reaches altitude 10° 23:34:11 10° 280° (W) 4,376 11.8 -51.3°
Enters shadow 23:42:33 53° 271° (W) 2,801 10.2 -52.8°
